This demonstration page uses our WeatherBlox Daily Observations layout. Learn more.

Left ArrowRight Arrow

Hourly Observations for July 30, 2015

Temp ( °F °C ) Dew Point ( °F °C ) Humidity (%) Winds ( mph kmh ) Pressure ( in mb ) Visibility ( mi km ) Precip ( " mm )
12:51 am 00:51 Mostly Cloudy 73 22.8 65 18.3 76 76 SSE 8 13 29.98 1015 10 16.0934 N/A
1:51 am 01:51 Mostly Cloudy 73 22.8 65 18.3 76 76 SE 13 20 29.95 1014 10 16.0934 N/A
2:51 am 02:51 Clear 73 22.8 65 18.3 76 76 SE 9 15 29.97 1015 10 16.0934 N/A
3:51 am 03:51 Clear 72 22.2 65 18.3 79 79 ESE 7 11 29.99 1016 10 16.0934 N/A
4:51 am 04:51 Clear 72 22.2 65 18.3 79 79 ESE 7 11 30.01 1016 10 16.0934 N/A
5:51 am 05:51 Sunny 71 21.7 65 18.3 81 81 ESE 5 7 30.03 1017 10 16.0934 N/A
6:51 am 06:51 Sunny 73 22.8 65 18.3 76 76 SSE 6 9 30.05 1018 10 16.0934 N/A
7:51 am 07:51 Sunny 75 23.9 65 18.3 71 71 SSE 7 11 30.07 1018 10 16.0934 N/A
8:51 am 08:51 Mostly Sunny 78 25.6 65 18.3 64 64 S 7 11 30.06 1018 10 16.0934 N/A
9:51 am 09:51 Sunny 81 27.2 63 17.2 54 54 undefined N/A 30.05 1018 10 16.0934 N/A
10:51 am 10:51 Sunny 85 29.4 61 16.1 45 45 SSE 8 13 30.04 1017 10 16.0934 N/A
11:51 am 11:51 Mostly Cloudy 90 32.2 61 16.1 38 38 SE 12 19 30.01 1016 10 16.0934 N/A
12:51 pm 12:51 Sunny 89 31.7 60 15.6 38 38 SSE 3 6 29.98 1015 10 16.0934 N/A
1:51 pm 13:51 Mostly Sunny 101 38.3 63 17.2 29 29 VRB 5 7 29.99 1016 10 16.0934 N/A
2:51 pm 14:51 Mostly Sunny 94 34.4 57 13.9 29 29 undefined N/A 29.91 1013 10 16.0934 N/A
3:51 pm 15:51 Sunny 93 33.9 56 13.3 29 29 VRB 5 7 29.88 1012 10 16.0934 N/A
4:51 pm 16:51 Sunny 94 34.4 56 13.3 28 28 VRB 6 9 29.87 1011 10 16.0934 N/A
5:51 pm 17:51 Sunny 94 34.4 55 12.8 27 27 VRB 5 7 29.86 1011 10 16.0934 N/A
6:51 pm 18:51 Sunny 80 26.7 23 -5 12 12 S 3 6 30.11 1020 10 16.0934 N/A
7:51 pm 19:51 Clear 91 32.8 56 13.3 31 31 S 6 9 29.89 1012 10 16.0934 N/A
8:51 pm 20:51 Clear 84 28.8 77 25.1 80 80 S 6 9 29.71 1006 10 16.0934 N/A
9:51 pm 21:51 Clear 86 30 58 14.4 39 39 SSE 3 6 29.93 1013 10 16.0934 N/A
10:51 pm 22:51 Clear 84 28.9 58 14.4 41 41 ESE 7 11 29.93 1014 10 16.0934 N/A
11:51 pm 23:51 Clear 83 28.3 59 15 44 44 E 6 9 29.93 1014 10 16.0934 N/A

Powered by AerisWeather